KK4OHF Weather Reports


time (UTC)temp
C
wind
direction
speed
KPH
gust
KPH
rain 1hr
cm
rain 24hr
cm
rain mn
cm
humidity
%
barometer
mb
20260901161505 32 324 1.6 8.0 0.00 0.00 0.00 59 1020.6
20260901161005 32 283 3.2 8.0 0.00 0.00 0.00 59 1020.6
20260901160506 32 45 3.2 4.8 0.00 0.00 0.00 59 1020.6
20260901160005 32 11 1.6 3.2 0.00 0.00 0.00 60 1020.6
20260901155505 32 11 1.6 3.2 0.00 0.00 0.00 60 1020.6
20260901154505 32 38 1.6 9.7 0.00 0.00 0.00 61 1020.6
20260901154005 31 42 1.6 9.7 0.00 0.00 0.00 60 1020.6
20260901153505 31 55 3.2 4.8 0.00 0.00 0.00 60 1020.6
20260901152505 31 278 1.6 4.8 0.00 0.00 0.00 63 1020.6
20260901152005 31 206 3.2 4.8 0.00 0.00 0.00 62 1020.6
20260901151505 31 299 1.6 8.0 0.00 0.00 0.00 62 1020.6
20260901151005 31 244 3.2 8.0 0.00 0.00 0.00 62 1020.6
20260901150005 30 248 1.6 4.8 0.00 0.00 0.00 65 1020.6
20260901145506 30 7 0.0 0.0 0.00 0.00 0.00 67 1020.6
20260901145005 30 249 0.0 0.0 0.00 0.00 0.00 70 1020.6
20260901144505 30 147 0.0 0.0 0.00 0.00 0.00 70 1020.6
20260901144005 30 146 0.0 0.0 0.00 0.00 0.00 73 1020.6
20260901143005 30 244 0.0 1.6 0.00 0.00 0.00 71 1020.6
20260901142505 29 30 0.0 1.6 0.00 0.00 0.00 73 1020.6
20260901142005 29 30 0.0 3.2 0.00 0.00 0.00 73 1020.6
20260901141005 28 16 0.0 1.6 0.00 0.00 0.00 76 1020.6
20260901140505 27 16 0.0 1.6 0.00 0.00 0.00 76 1020.6
20260901135504 26 16 0.0 0.0 0.00 0.00 0.00 80 1020.5
20260901135005 26 16 0.0 3.2 0.00 0.00 0.00 83 1020.5
20260901134505 25 16 1.6 3.2 0.00 0.00 0.00 86 1020.6
20260901134005 23 16 1.6 3.2 0.00 0.00 0.00 89 1020.6
20260901133505 23 16 1.6 3.2 0.00 0.00 0.00 89 1020.6
20260901133005 23 16 1.6 4.8 0.00 0.00 0.00 89 1020.5
20260901132505 22 16 1.6 3.2 0.00 0.00 0.00 89 1020.5
20260901132005 22 16 1.6 3.2 0.00 0.00 0.00 89 1020.5
20260901131505 22 16 1.6 3.2 0.00 0.00 0.00 89 1020.5
20260901131006 22 16 1.6 3.2 0.00 0.00 0.00 89 1020.5
20260901130505 22 16 1.6 1.6 0.00 0.00 0.00 89 1020.5
20260901130005 22 16 0.0 0.0 0.00 0.00 0.00 89 1020.5
20260901125505 22 16 0.0 0.0 0.00 0.00 0.00 89 1020.5
20260901125005 21 16 0.0 1.6 0.00 0.00 0.00 89 1020.5
20260901124506 21 16 0.0 0.0 0.00 0.00 0.00 89 1020.5
20260901124005 21 16 0.0 0.0 0.00 0.00 0.00 89 1020.5
20260901123505 21 16 0.0 0.0 0.00 0.00 0.00 89 1020.5
20260901122505 20 16 0.0 0.0 0.00 0.00 0.00 89 1020.3
20260901122005 20 16 0.0 0.0 0.00 0.00 0.00 90 1020.0
20260901121506 20 16 0.0 0.0 0.00 0.00 0.00 90 1020.0
20260901121005 20 16 0.0 0.0 0.00 0.00 0.00 90 1020.0
20260901120505 20 16 0.0 1.6 0.00 0.00 0.00 90 1020.0
20260901120005 20 16 0.0 0.0 0.00 0.00 0.00 90 1019.8
20260901115506 20 16 0.0 0.0 0.00 0.00 0.00 90 1019.8
20260901114506 20 16 0.0 0.0 0.00 0.00 0.00 90 1019.8
20260901114006 20 16 0.0 0.0 0.00 0.00 0.00 90 1019.5
20260901113005 20 16 0.0 0.0 0.00 0.00 0.00 90 1019.3
20260901112505 20 16 0.0 0.0 0.00 0.00 0.00 90 1019.3
20260901111505 20 16 0.0 0.0 0.00 0.00 0.00 90 1019.3
20260901111005 20 16 0.0 0.0 0.00 0.00 0.00 90 1019.3
20260901110505 20 16 0.0 0.0 0.00 0.00 0.00 90 1019.3
20260901110005 20 16 0.0 0.0 0.00 0.00 0.00 90 1019.1
20260901105505 20 16 0.0 0.0 0.00 0.00 0.00 90 1019.1
20260901105005 20 16 0.0 0.0 0.00 0.00 0.00 90 1019.1
20260901104504 20 16 0.0 0.0 0.00 0.00 0.00 90 1019.1
20260901104005 20 16 0.0 0.0 0.00 0.00 0.00 90 1019.1
20260901103505 20 16 0.0 0.0 0.00 0.00 0.00 90 1019.1
20260901103005 20 16 0.0 0.0 0.00 0.00 0.00 90 1018.9
20260901102505 20 16 0.0 0.0 0.00 0.00 0.00 90 1018.9
20260901102006 20 16 0.0 0.0 0.00 0.00 0.00 90 1018.9
20260901101505 20 16 0.0 0.0 0.00 0.00 0.00 90 1018.9
20260901101006 20 16 0.0 0.0 0.00 0.00 0.00 90 1018.9
20260901100506 20 16 0.0 0.0 0.00 0.00 0.00 90 1018.9
20260901100005 20 16 0.0 0.0 0.00 0.00 0.00 90 1018.9
20260901095506 20 16 0.0 1.6 0.00 0.00 0.00 90 1018.9
20260901094506 20 16 0.0 0.0 0.00 0.00 0.00 90 1019.0
20260901093505 20 16 0.0 0.0 0.00 0.00 0.00 89 1019.0
20260901092006 21 16 0.0 1.6 0.00 0.00 0.00 89 1018.7
20260901091504 21 16 0.0 0.0 0.00 0.00 0.00 90 1018.7
20260901091005 21 16 0.0 0.0 0.00 0.00 0.00 90 1018.7
20260901090005 21 16 0.0 0.0 0.00 0.00 0.00 90 1018.7
20260901085504 21 16 0.0 0.0 0.00 0.00 0.00 90 1018.7
20260901085006 21 16 0.0 0.0 0.00 0.00 0.00 90 1018.7
20260901084006 21 16 0.0 0.0 0.00 0.00 0.00 89 1018.7
20260901083506 21 16 0.0 0.0 0.00 0.00 0.00 89 1018.7
20260901083013 21 16 0.0 1.6 0.00 0.00 0.00 89 1018.7
20260901082005 21 16 0.0 1.6 0.00 0.00 0.00 89 1018.6
20260901081005 21 16 0.0 1.6 0.00 0.00 0.00 89 1018.6
20260901080505 21 16 0.0 0.0 0.00 0.00 0.00 89 1018.6
20260901080005 21 16 0.0 0.0 0.00 0.00 0.00 89 1018.4
20260901075505 21 16 0.0 0.0 0.00 0.00 0.00 89 1018.4
20260901075006 21 16 0.0 0.0 0.00 0.00 0.00 89 1018.5
20260901074504 21 16 0.0 0.0 0.00 0.00 0.00 89 1018.5
20260901074005 21 16 0.0 0.0 0.00 0.00 0.00 89 1018.5
20260901073005 21 16 0.0 1.6 0.00 0.00 0.00 89 1018.4
20260901072505 21 16 0.0 1.6 0.00 0.00 0.00 89 1018.4
20260901072005 21 16 0.0 0.0 0.00 0.00 0.00 89 1018.6
20260901071505 21 16 0.0 0.0 0.00 0.00 0.00 89 1018.6
20260901071006 21 16 0.0 0.0 0.00 0.00 0.00 89 1018.6
20260901070506 21 16 0.0 0.0 0.00 0.00 0.00 89 1018.6
20260901070005 21 16 0.0 0.0 0.00 0.00 0.00 89 1018.7
20260901065505 21 16 0.0 0.0 0.00 0.00 0.00 89 1018.7
20260901065005 21 16 0.0 0.0 0.00 0.00 0.00 89 1018.7
20260901064505 21 16 0.0 0.0 0.00 0.00 0.00 89 1018.7
20260901063505 21 16 0.0 0.0 0.00 0.00 0.00 89 1018.7
20260901062505 21 16 0.0 0.0 0.00 0.00 0.00 89 1018.9
20260901062005 22 16 0.0 0.0 0.00 0.00 0.00 89 1018.9
20260901061506 22 16 0.0 0.0 0.00 0.00 0.00 89 1018.9
20260901061005 22 16 0.0 0.0 0.00 0.00 0.00 89 1018.9
20260901060505 22 16 0.0 1.6 0.00 0.00 0.00 88 1018.9
20260901060006 22 16 0.0 0.0 0.00 0.00 0.00 89 1019.0
20260901055505 22 16 0.0 0.0 0.00 0.00 0.00 89 1019.0
20260901055006 22 16 0.0 0.0 0.00 0.00 0.00 88 1019.0
20260901054505 22 16 0.0 0.0 0.00 0.00 0.00 88 1019.0
20260901054005 22 16 0.0 0.0 0.00 0.00 0.00 88 1019.0
20260901053505 22 16 0.0 0.0 0.00 0.00 0.00 88 1019.0
20260901053005 22 16 0.0 0.0 0.00 0.00 0.00 88 1019.0
20260901052505 22 16 0.0 0.0 0.00 0.00 0.00 88 1019.0
20260901051505 22 16 0.0 0.0 0.00 0.00 0.00 88 1019.0
20260901051006 22 16 0.0 0.0 0.00 0.00 0.00 88 1019.0
20260901050505 22 16 0.0 1.6 0.00 0.00 0.00 88 1019.0
20260901050005 22 16 0.0 1.6 0.00 0.00 0.00 88 1019.0
20260901045005 22 16 0.0 0.0 0.00 0.00 0.00 88 1019.0
20260901044506 22 16 0.0 0.0 0.00 0.00 0.00 88 1019.0
20260901043505 22 16 0.0 1.6 0.00 0.00 0.00 88 1019.0
20260901042005 23 16 0.0 0.0 0.00 0.00 0.00 87 1019.0
20260901041505 23 16 0.0 0.0 0.00 0.00 0.00 87 1019.0
20260901041022 23 16 0.0 0.0 0.00 0.00 0.00 87 1019.0
20260901035506 23 16 0.0 0.0 0.00 0.00 0.00 87 1019.0
20260901035004 23 16 0.0 0.0 0.00 0.00 0.00 87 1019.2
20260901034505 23 16 0.0 0.0 0.00 0.00 0.00 87 1019.2
20260901033006 23 16 0.0 0.0 0.00 0.00 0.00 86 1019.0
20260901032006 23 16 0.0 0.0 0.00 0.00 0.00 86 1019.0
20260901031505 23 16 0.0 1.6 0.00 0.00 0.00 86 1019.0
20260901031005 23 16 0.0 0.0 0.00 0.00 0.00 86 1019.0
20260901030506 24 16 0.0 0.0 0.00 0.00 0.00 85 1019.0
20260901030005 24 16 0.0 0.0 0.00 0.00 0.00 85 1019.2
20260901025505 24 16 0.0 0.0 0.00 0.00 0.00 85 1019.2
20260901025005 24 16 0.0 0.0 0.00 0.00 0.00 85 1019.2
20260901024505 24 16 0.0 0.0 0.00 0.00 0.00 85 1019.1
20260901024005 24 16 0.0 0.0 0.00 0.00 0.00 85 1019.1
20260901023504 25 16 0.0 0.0 0.00 0.00 0.00 84 1019.1
20260901023005 25 16 0.0 0.0 0.00 0.00 0.00 84 1018.5
20260901022505 25 16 0.0 0.0 0.00 0.00 0.00 84 1018.5
20260901022005 25 16 0.0 0.0 0.00 0.00 0.00 84 1018.5
20260901021506 25 16 0.0 0.0 0.00 0.00 0.00 84 1018.5
20260901021005 25 16 0.0 0.0 0.00 0.00 0.00 83 1018.5
20260901015504 25 16 0.0 0.0 0.00 0.00 0.00 82 1018.5
20260901015005 26 16 0.0 0.0 0.00 0.00 0.00 82 1018.5
20260901014505 26 16 0.0 0.0 0.00 0.00 0.00 82 1018.5
20260901014005 26 16 0.0 0.0 0.00 0.00 0.00 82 1018.5
20260901013505 26 16 0.0 0.0 0.00 0.00 0.00 82 1018.5
20260901013005 26 16 0.0 0.0 0.00 0.00 0.00 82 1018.4
20260901012504 26 16 0.0 1.6 0.00 0.00 0.00 81 1018.4
20260901012006 26 16 0.0 3.2 0.00 0.00 0.00 81 1018.2
20260901011505 27 16 0.0 0.0 0.00 0.00 0.00 81 1018.2
20260901011005 27 16 0.0 0.0 0.00 0.00 0.00 80 1018.2
20260901010505 27 16 0.0 0.0 0.00 0.00 0.00 79 1018.2
20260901010005 27 16 0.0 0.0 0.00 0.00 0.00 79 1017.9
20260901005005 28 16 0.0 0.0 0.00 0.00 0.00 77 1017.9
20260901004505 28 16 0.0 0.0 0.00 0.00 0.00 77 1017.9
20260901004005 28 16 0.0 0.0 0.00 0.00 0.00 76 1017.9
20260901003505 28 16 0.0 0.0 0.00 0.00 0.00 76 1017.9
20260901003005 28 16 0.0 0.0 0.00 0.00 0.00 75 1017.9
20260901002505 28 16 0.0 0.0 0.00 0.00 0.00 73 1017.9
20260901002005 29 16 0.0 0.0 0.00 0.00 0.00 72 1017.9
20260901001505 29 16 0.0 0.0 0.00 0.00 0.00 73 1017.9
20260901000504 30 16 0.0 0.0 0.00 0.00 0.00 71 1017.9
20260901000005 30 16 0.0 0.0 0.00 0.00 0.00 70 1017.9
20260831235505 30 16 0.0 0.0 0.00 0.00 0.00 69 1017.9
20260831235005 30 16 0.0 0.0 0.00 0.00 0.00 68 1017.9
20260831234505 31 16 0.0 0.0 0.00 0.00 0.00 67 1017.9
20260831233506 31 16 0.0 0.0 0.00 0.00 0.00 65 1017.9
20260831232505 31 16 0.0 0.0 0.00 0.00 0.00 59 1017.9
20260831232005 31 16 0.0 0.0 0.00 0.00 0.00 59 1017.9
20260831231505 31 16 0.0 0.0 0.00 0.00 0.00 58 1017.9
20260831231005 31 16 0.0 1.6 0.00 0.00 0.00 58 1017.9
20260831230505 31 16 1.6 3.2 0.00 0.00 0.00 57 1017.9
20260831230006 31 16 1.6 3.2 0.00 0.00 0.00 56 1017.9
20260831225504 31 16 0.0 1.6 0.00 0.00 0.00 56 1017.9
20260831225005 31 16 1.6 3.2 0.00 0.00 0.00 55 1017.9
20260831224006 31 16 1.6 3.2 0.00 0.00 0.00 54 1018.1
20260831222006 31 36 1.6 4.8 0.00 0.00 0.00 54 1018.5
20260831221504 31 5 3.2 4.8 0.00 0.00 0.00 54 1018.5
20260831221005 31 15 1.6 4.8 0.00 0.00 0.00 55 1018.5
20260831220505 32 15 1.6 3.2 0.00 0.00 0.00 55 1018.5
20260831220005 32 15 1.6 4.8 0.00 0.00 0.00 54 1018.5
20260831215505 32 80 1.6 3.2 0.00 0.00 0.00 54 1018.5
20260831215005 32 80 1.6 3.2 0.00 0.00 0.00 52 1018.5
20260831214505 32 13 1.6 3.2 0.00 0.00 0.00 53 1018.5
20260831214004 32 13 1.6 4.8 0.00 0.00 0.00 52 1018.5
20260831213006 32 23 1.6 4.8 0.00 0.00 0.00 53 1018.5
20260831212505 32 142 0.0 3.2 0.00 0.00 0.00 53 1018.5
20260831212006 32 11 0.0 3.2 0.00 0.00 0.00 52 1018.6
20260831211505 32 11 1.6 4.8 0.00 0.00 0.00 53 1018.6
20260831210506 32 17 1.6 4.8 0.00 0.00 0.00 51 1018.5
20260831210005 32 8 3.2 4.8 0.00 0.00 0.00 53 1018.7
20260831205504 32 103 1.6 3.2 0.00 0.00 0.00 53 1018.7
20260831205005 32 73 1.6 3.2 0.00 0.00 0.00 52 1018.7
20260831204005 32 11 1.6 4.8 0.00 0.00 0.00 52 1018.9
20260831203005 32 5 1.6 3.2 0.00 0.00 0.00 53 1019.0
20260831202505 32 5 1.6 3.2 0.00 0.00 0.00 53 1019.0
20260831202006 32 351 1.6 4.8 0.00 0.00 0.00 51 1019.0
20260831201505 32 18 1.6 4.8 0.00 0.00 0.00 53 1019.0
20260831201005 33 27 3.2 8.0 0.00 0.00 0.00 52 1019.0
20260831200506 33 335 1.6 3.2 0.00 0.00 0.00 52 1019.0
20260831195506 33 104 3.2 4.8 0.00 0.00 0.00 49 1019.6
20260831195005 33 71 1.6 3.2 0.00 0.00 0.00 48 1019.6
20260831194006 32 105 1.6 4.8 0.00 0.00 0.00 53 1019.6
20260831193505 32 29 1.6 4.8 0.00 0.00 0.00 51 1019.6
20260831193004 33 22 3.2 4.8 0.00 0.00 0.00 53 1019.6
20260831192505 32 254 3.2 4.8 0.00 0.00 0.00 53 1019.6
20260831192006 32 306 1.6 4.8 0.00 0.00 0.00 54 1019.6
20260831191504 31 314 3.2 8.0 0.00 0.00 0.00 55 1019.6
20260831190504 32 9 3.2 4.8 0.00 0.00 0.00 54 1019.6
20260831190005 32 344 3.2 4.8 0.00 0.00 0.00 54 1020.0
20260831185506 33 316 1.6 4.8 0.00 0.00 0.00 53 1020.0
20260831184005 31 9 3.2 4.8 0.00 0.00 0.00 53 1020.0
20260831183505 31 310 4.8 8.0 0.00 0.00 0.00 55 1020.0
20260831183006 31 1 1.6 4.8 0.00 0.00 0.00 55 1020.0
20260831182505 32 356 1.6 4.8 0.00 0.00 0.00 57 1020.0
20260831182005 32 24 4.8 8.0 0.00 0.00 0.00 55 1020.4
20260831181505 31 21 4.8 8.0 0.00 0.00 0.00 56 1020.4
20260831181004 31 5 1.6 4.8 0.00 0.00 0.00 58 1020.4
20260831180505 31 7 3.2 4.8 0.00 0.00 0.00 56 1020.4
20260831175506 32 344 1.6 3.2 0.00 0.00 0.00 56 1020.4
20260831175006 31 242 3.2 4.8 0.00 0.00 0.00 54 1020.4
20260831174505 31 26 3.2 4.8 0.00 0.00 0.00 57 1020.5
20260831174006 31 11 3.2 4.8 0.00 0.00 0.00 58 1020.6
20260831173504 32 10 1.6 4.8 0.00 0.00 0.00 57 1020.6
20260831173005 31 58 1.6 4.8 0.00 0.00 0.00 56 1020.6
20260831172505 31 336 3.2 4.8 0.00 0.00 0.00 61 1020.6
20260831172005 31 26 1.6 4.8 0.00 0.00 0.00 59 1021.0
20260831171505 31 24 3.2 4.8 0.00 0.00 0.00 60 1021.0
20260831171005 32 30 4.8 12.9 0.00 0.00 0.00 58 1021.0
20260831170504 31 122 1.6 4.8 0.00 0.00 0.00 62 1021.0
20260831165005 31 7 4.8 8.0 0.00 0.00 0.00 61 1021.1
20260831164505 31 94 1.6 4.8 0.00 0.00 0.00 65 1021.1
20260831164005 31 9 3.2 8.0 0.00 0.00 0.00 61 1021.1
20260831163505 31 167 1.6 3.2 0.00 0.00 0.00 61 1021.1
20260831163005 31 32 1.6 4.8 0.00 0.00 0.00 66 1021.1
20260831162505 30 130 1.6 3.2 0.00 0.00 0.00 67 1021.1
20260831162005 30 26 1.6 3.2 0.00 0.00 0.00 65 1021.1